CW6575 Weather Reports


time (UTC)temp
C
wind
direction
speed
KPH
gust
KPH
rain 1hr
cm
rain 24hr
cm
rain mn
cm
humidity
%
barometer
mb
20260508033008 4 150 3.2 6.4 0.00 0.13 0.10 82 1013.9
20260508031500 5 142 0.0 4.8 0.00 0.13 0.10 81 1013.7
20260508030100 5 161 4.8 8.0 0.00 0.13 0.10 81 1013.5
20260508024556 5 144 3.2 4.8 0.00 0.13 0.10 83 1013.3
20260508023053 5 140 0.0 3.2 0.00 0.13 0.10 84 1013.3
20260508021555 5 140 0.0 4.8 0.00 0.13 0.10 81 1013.1
20260508020050 6 331 1.6 4.8 0.00 0.13 0.10 78 1012.9
20260508014544 -17 0.0 0.0 0.00 0.15 0.10 1012.8
20260508013052 10 277 1.6 11.3 0.00 0.15 0.10 53 1012.6
20260508011543 10 288 0.0 6.4 0.00 0.15 0.10 54 1012.3
20260508010040 10 306 0.0 6.4 0.00 0.15 0.10 54 1012.2
20260508004540 10 311 0.0 3.2 0.00 0.18 0.10 54 1012.0
20260508003037 11 314 0.0 6.4 0.00 0.18 0.10 53 1011.7
20260508001601 11 300 0.0 6.4 0.00 0.18 0.10 51 1011.5
20260508000037 11 322 0.0 4.8 0.00 0.18 0.10 51 1011.3
20260507234536 12 321 3.2 9.7 0.00 0.20 0.10 49 1011.2
20260507233035 12 327 1.6 9.7 0.00 0.20 0.10 49 1011.1
20260507231537 12 309 3.2 16.1 0.00 0.20 0.10 48 1011.0
20260507230034 13 339 3.2 12.9 0.00 0.20 0.10 48 1010.8
20260507224541 12 348 3.2 9.7 0.00 0.25 0.10 51 1010.8
20260507223033 12 344 3.2 12.9 0.00 0.25 0.10 51 1010.7
20260507221532 13 333 4.8 12.9 0.00 0.25 0.10 48 1010.4
20260507220040 13 310 3.2 17.7 0.00 0.25 0.10 50 1010.3
20260507214536 13 9 4.8 9.7 0.00 0.25 0.10 48 1010.0
20260507213033 13 340 1.6 9.7 0.00 0.25 0.10 50 1010.0
20260507211534 13 321 3.2 8.0 0.00 0.25 0.10 49 1009.9
20260507210028 13 334 4.8 11.3 0.00 0.25 0.10 49 1009.8
20260507204528 13 327 3.2 8.0 0.00 0.25 0.10 51 1009.8
20260507203032 13 340 6.4 14.5 0.00 0.25 0.10 50 1009.8
20260507201526 13 360 1.6 16.1 0.00 0.25 0.10 50 1009.9
20260507200027 14 337 3.2 19.3 0.00 0.25 0.10 50 1010.1
20260507194521 13 317 4.8 12.9 0.00 0.28 0.10 53 1010.2
20260507193024 13 5 3.2 16.1 0.00 0.28 0.10 54 1010.4
20260507191521 13 355 3.2 9.7 0.00 0.28 0.10 56 1010.4
20260507190019 13 329 4.8 9.7 0.00 0.28 0.10 54 1010.3
20260507184516 13 355 8.0 16.1 0.00 0.28 0.10 55 1010.4
20260507183019 13 306 6.4 17.7 0.00 0.28 0.10 58 1010.5
20260507181515 13 314 3.2 20.9 0.00 0.28 0.10 56 1010.5
20260507180014 13 327 4.8 9.7 0.00 0.28 0.10 60 1010.4
20260507174512 13 332 3.2 8.0 0.00 0.30 0.10 61 1010.6
20260507173017 12 326 3.2 8.0 0.00 0.30 0.10 60 1010.7
20260507171514 13 327 4.8 14.5 0.00 0.30 0.10 62 1011.0
20260507170007 12 336 3.2 8.0 0.00 0.30 0.10 60 1011.3
20260507164502 12 329 3.2 12.9 0.00 0.30 0.10 65 1011.4
20260507163001 12 330 1.6 8.0 0.00 0.30 0.10 65 1011.6
20260507161557 12 294 1.6 6.4 0.00 0.30 0.10 68 1011.7
20260507160056 11 302 1.6 8.0 0.00 0.30 0.10 70 1011.9
20260507154601 11 313 3.2 8.0 0.00 0.30 0.10 69 1011.9
20260507153058 10 317 1.6 4.8 0.00 0.30 0.10 69 1012.1
20260507151547 10 300 1.6 4.8 0.00 0.30 0.10 74 1012.0
20260507150045 10 325 1.6 4.8 0.00 0.30 0.10 76 1012.1
20260507144542 9 340 0.0 4.8 0.00 0.30 0.10 76 1012.3
20260507143042 9 346 0.0 3.2 0.00 0.30 0.10 80 1012.5
20260507141539 9 348 0.0 4.8 0.00 0.30 0.10 83 1012.6
20260507140041 8 338 0.0 4.8 0.00 0.30 0.10 86 1012.8
20260507134539 8 218 0.0 1.6 0.00 0.33 0.10 89 1012.7
20260507133035 8 219 0.0 1.6 0.00 0.33 0.10 91 1012.9
20260507131550 8 201 0.0 4.8 0.00 0.33 0.10 92 1013.0
20260507130032 7 161 0.0 3.2 0.00 0.33 0.10 93 1013.0
20260507124534 7 298 0.0 0.0 0.00 0.51 0.10 93 1013.1
20260507123031 7 298 0.0 0.0 0.00 0.51 0.10 94 1013.1
20260507121532 7 298 0.0 0.0 0.00 0.51 0.10 94 1013.1
20260507120038 7 298 0.0 0.0 0.00 0.51 0.10 94 1013.0
20260507114527 7 298 0.0 0.0 0.00 0.71 0.10 94 1012.8
20260507113025 7 302 0.0 0.0 0.00 0.71 0.10 94 1012.6
20260507111525 7 302 0.0 0.0 0.00 0.71 0.10 94 1012.5
20260507110023 7 302 0.0 0.0 0.00 0.71 0.10 94 1012.1
20260507104522 7 302 0.0 0.0 0.00 1.02 0.10 94 1012.0
20260507103020 7 302 0.0 0.0 0.00 1.02 0.10 94 1012.1
20260507101519 7 302 0.0 0.0 0.00 1.02 0.10 94 1011.8
20260507100020 7 302 0.0 0.0 0.00 1.02 0.10 94 1011.9
20260507094517 7 302 0.0 0.0 0.00 1.17 0.10 94 1011.7
20260507093017 7 302 0.0 0.0 0.05 1.17 0.10 94 1011.7
20260507091516 7 310 0.0 4.8 0.05 1.17 0.10 94 1011.7
20260507090020 7 283 1.6 6.4 0.05 1.17 0.10 94 1011.8
20260507084513 8 336 0.0 3.2 0.05 1.19 0.10 94 1011.5
20260507083008 8 336 0.0 0.0 0.03 1.14 0.05 94 1011.4
20260507081515 8 336 0.0 0.0 0.03 1.14 0.05 94 1011.5
20260507080008 8 336 0.0 0.0 0.03 1.14 0.05 94 1011.5
20260507074611 8 336 0.0 0.0 0.03 1.14 0.05 94 1011.4
20260507073005 8 336 0.0 0.0 0.00 1.12 0.03 93 1011.4
20260507071507 8 336 0.0 0.0 0.00 1.12 0.03 93 1011.4
20260507070010 8 336 0.0 0.0 0.00 1.12 0.03 93 1011.2
20260507064507 8 336 0.0 0.0 0.00 1.12 0.03 93 1011.3
20260507063004 8 336 0.0 0.0 0.00 1.12 0.03 93 1011.2
20260507061504 8 336 0.0 0.0 0.00 1.12 0.03 93 1011.4
20260507060002 8 336 0.0 0.0 0.00 1.12 0.03 93 1011.7
20260507054501 8 336 0.0 1.6 0.00 1.12 0.03 93 1012.0
20260507053101 8 336 0.0 1.6 0.00 1.12 0.03 94 1012.0
20260507051600 8 336 0.0 6.4 0.03 1.12 0.03 94 1012.0
20260507050059 8 330 1.6 4.8 0.03 1.12 0.03 94 1011.9
20260507044600 8 360 1.6 4.8 0.03 1.12 0.03 94 1011.7
20260507043053 8 355 1.6 3.2 0.03 1.12 0.03 94 1011.7
20260507041556 8 348 0.0 3.2 0.03 1.09 0.00 94 1011.3
20260507040045 9 348 1.6 4.8 0.03 1.09 0.00 94 1011.2
20260507034546 9 296 3.2 8.0 0.03 1.09 1.09 94 1011.3